Location: Gorze? G�rny
(49.8500°N, 19.5000°E)
Time: 11:33:48
(UTC+00:00)

Cosmos 1125 Rocket - Pass Details

Date: 13 May 2021
Orbit: 758 x 779 km, 74.0° (Epoch: 22 June)

Event Time Altitude Azimuth Distance (km) Brightness Sun altitude
Exits shadow 22:13:53 46° 149° (SSE) 1,023 3.7 -21.3°
Maximum altitude 22:14:57 55° 107° (ESE) 920 3.7 -21.3°
Drops below altitude 10° 22:20:02 10° 31° (NNE) 2,302 6.7 -21.4°
Sets 22:22:26 0° 27° (NNE) 3,230 7.7 -21.4°
